Weather History for Mt. Pocono, PA

Change the Weather History Date:

Monday, February 18, 2013

  Actual Average Record
Temperature  
Mean Temperature 18 °F 26 °F  
Max Temperature 29 °F 35 °F 63 °F (1981)
Min Temperature 7 °F 18 °F -14 °F (1979)
Degree Days  
Heating Degree Days 47 38  
Month to date heating degree days 758 719  
Since 1 July heating degree days 4458 4750  
Cooling Degree Days 0 0  
Month to date cooling degree days 0 0  
Year to date cooling degree days 0 0  
Moisture  
Dew Point 3 °F    
Average Humidity 58    
Maximum Humidity 76    
Minimum Humidity 39    
Precipitation  
Precipitation T in 0.10 in 1.33 in (1998)
Month to date precipitation 0.41 1.47  
Year to date precipitation 2.46 4.32  
Sea Level Pressure  
Sea Level Pressure 30.14 in    
Wind  
Wind Speed 12 mph (WNW)    
Max Wind Speed 29 mph    
Max Gust Speed 43 mph    
Visibility 10 miles    
Events Snow    
T = Trace of Precipitation, MM = Missing Value Source: NWS Daily Summary

Daily Weather History Graph

Daily Weather History Graph

Search for Another Location

Airport:

Trip Planner

Search our weather history database for the weather conditions in past years. The results will help you decide how hot, cold, wet, or windy it might be!

Date:

Astronomy

Feb. 18, 2013 Rise Set
Actual Time 6:51 AM EST 5:39 PM EST
Civil Twilight 6:23 AM EST 6:07 PM EST
Nautical Twilight 5:51 AM EST 6:39 PM EST
Astronomical Twilight 5:19 AM EST 7:11 PM EST
Moon 11:22 AM EST (2/18) 1:30 AM EST (2/18)
Length of Visible Light 11h 44m
Length of Day
10h 48m
First Quarter, 58% of the Moon is Illuminated
Feb 18
First Quarter
Feb 25
Full
Mar 4
Last Quarter
Mar 11
New
Mar 19
First Quarter

Hourly Weather History & Observations

Time (EST) Temp. Windchill Dew Point Humidity Pressure Visibility Wind Dir Wind Speed Gust Speed Precip Events Conditions
12:53 AM 9.0 °F -8.5 °F -2.0 °F 61% 30.02 in 10.0 mi WNW 16.1 mph 28.8 mph 0.00 in   Mostly Cloudy
1:53 AM 8.1 °F -10.2 °F -2.0 °F 64% 30.05 in 10.0 mi WNW 17.3 mph 31.1 mph N/A   Mostly Cloudy
2:53 AM 8.1 °F -13.0 °F -0.9 °F 67% 30.06 in 10.0 mi NW 24.2 mph 33.4 mph N/A   Mostly Cloudy
3:08 AM 8.6 °F -8.3 °F -0.4 °F 67% 29.94 in 10.0 mi NW 15.0 mph 25.3 mph N/A   Scattered Clouds
3:53 AM 8.1 °F -10.2 °F -0.9 °F 67% 30.06 in 10.0 mi NW 17.3 mph 35.7 mph N/A   Clear
4:35 AM 6.8 °F -9.3 °F -0.4 °F 72% 29.98 in 7.0 mi WNW 12.7 mph 21.9 mph N/A   Mostly Cloudy
4:53 AM 7.0 °F -8.3 °F -0.0 °F 73% 30.11 in 4.0 mi NW 11.5 mph 25.3 mph 0.00 in Snow Light Snow
5:01 AM 6.8 °F -11.8 °F -0.4 °F 72% 30.00 in 5.0 mi NW 17.3 mph 24.2 mph 0.00 in Snow Light Snow
5:14 AM 6.8 °F -10.0 °F -0.4 °F 72% 30.01 in 9.0 mi WNW 13.8 mph 25.3 mph 0.00 in   Overcast
5:32 AM 6.8 °F -8.6 °F -0.4 °F 72% 30.02 in 10.0 mi WNW 11.5 mph 26.5 mph 0.00 in   Scattered Clouds
5:53 AM 7.0 °F -8.3 °F -0.9 °F 70% 30.14 in 10.0 mi NW 11.5 mph 25.3 mph 0.00 in   Partly Cloudy
6:53 AM 7.0 °F -11.6 °F -0.9 °F 70% 30.16 in 10.0 mi NW 17.3 mph 26.5 mph N/A   Clear
7:53 AM 8.1 °F -9.0 °F -0.0 °F 70% 30.20 in 10.0 mi NW 15.0 mph 23.0 mph N/A   Clear
8:53 AM 10.9 °F -6.5 °F 1.0 °F 64% 30.22 in 10.0 mi NW 17.3 mph 28.8 mph N/A   Clear
9:53 AM 12.9 °F -2.8 °F 1.9 °F 62% 30.24 in 10.0 mi NW 15.0 mph 21.9 mph N/A   Clear
10:53 AM 17.1 °F 3.0 °F 1.9 °F 52% 30.25 in 10.0 mi NNW 13.8 mph 21.9 mph N/A   Clear
11:53 AM 19.0 °F 4.0 °F 1.9 °F 47% 30.24 in 10.0 mi NW 17.3 mph 20.7 mph N/A   Clear
12:53 PM 23.0 °F 11.1 °F 3.9 °F 44% 30.22 in 10.0 mi West 12.7 mph 19.6 mph N/A   Clear
1:53 PM 25.0 °F 15.5 °F 5.0 °F 43% 30.20 in 10.0 mi WNW 9.2 mph - N/A   Clear
2:53 PM 27.0 °F 18.7 °F 6.1 °F 41% 30.19 in 10.0 mi WNW 8.1 mph - N/A   Clear
3:53 PM 28.0 °F 18.1 °F 7.0 °F 41% 30.19 in 10.0 mi West 11.5 mph - N/A   Clear
4:53 PM 28.0 °F 22.8 °F 7.0 °F 41% 30.19 in 10.0 mi West 4.6 mph - N/A   Clear
5:53 PM 25.0 °F 17.1 °F 8.1 °F 49% 30.20 in 10.0 mi West 6.9 mph - N/A   Clear
6:53 PM 24.1 °F 18.2 °F 6.1 °F 46% 30.20 in 10.0 mi West 4.6 mph - N/A   Clear
7:53 PM 24.1 °F 18.2 °F 6.1 °F 46% 30.20 in 10.0 mi West 4.6 mph - N/A   Clear
8:53 PM 25.0 °F 18.1 °F 7.0 °F 46% 30.18 in 10.0 mi WSW 5.8 mph - N/A   Clear
9:53 PM 26.1 °F 16.8 °F 7.0 °F 44% 30.17 in 10.0 mi WSW 9.2 mph - N/A   Scattered Clouds
10:53 PM 27.0 °F 18.0 °F 9.0 °F 47% 30.16 in 10.0 mi WSW 9.2 mph - N/A   Clear
11:53 PM 28.0 °F 20.0 °F 8.1 °F 43% 30.15 in 10.0 mi WSW 8.1 mph - N/A   Clear